Location: Piolenc
(44.1794°N, 4.7641°E)
Time: 03:00:02
(UTC+00:00)

Cosmos 2292 Rocket - Pass Details

Date: 27 January 2021
Orbit: 380 x 1450 km, 83.0° (Epoch: 27 February)

Event Time Altitude Azimuth Distance (km) Brightness Sun altitude
Rises 06:26:18 0° 343° (NNW) 2,282 6.1 -7.1°
Reaches altitude 10° 06:28:15 10° 335° (NNW) 1,459 5.1 -6.8°
Maximum altitude 06:31:07 37° 265° (W) 698 3.4 -6.3°
Drops below altitude 10° 06:34:26 10° 197° (SSW) 1,691 5.9 -5.7°
Sets 06:36:52 0° 189° (S) 2,716 7.0 -5.3°
